This is the latest recevied weather packets stored in our database for station/object I1SXT-13. If no packets are shown the sender has not sent any weather packets the latest 10 day(s).
| Time | Temp. | Humidity | Pressure | Rain* | Wind** | Luminosity | Snow |
|---|---|---|---|---|---|---|---|
| 1778194468 | 11.67° C | 90% | 1015 hPa | 0 mm | - | - | - |
| 1778194164 | 11.67° C | 90% | 1015.2 hPa | 0 mm | - | - | - |
| 1778193266 | 12.22° C | 87% | 1015.8 hPa | 0 mm | - | - | - |
| 1778192969 | 12.78° C | 84% | 1015 hPa | 0 mm | - | - | - |
| 1778192665 | 12.78° C | 82% | 1014.8 hPa | 0 mm | - | - | - |
| 1778192368 | 12.78° C | 82% | 1015 hPa | 0 mm | - | - | - |
| 1778192064 | 12.78° C | 82% | 1015 hPa | 0 mm | - | - | - |
| 1778191767 | 12.78° C | 82% | 1015.2 hPa | 0 mm | - | - | - |
| 1778191469 | 12.78° C | 83% | 1015.6 hPa | 0 mm | - | - | - |
| 1778191169 | 12.78° C | 85% | 1015.1 hPa | 0 mm | - | - | - |
| 1778190865 | 12.78° C | 85% | 1015.2 hPa | 0 mm | - | - | - |
| 1778190568 | 13.33° C | 84% | 1014.8 hPa | 0 mm | - | - | - |
| 1778190264 | 13.33° C | 83% | 1015.1 hPa | 0 mm | - | - | - |
| 1778189967 | 13.33° C | 82% | 1014.6 hPa | 0 mm | - | - | - |
| 1778189670 | 13.33° C | 83% | 1015 hPa | 0 mm | - | - | - |
| 1778189366 | 13.33° C | 82% | 1014.6 hPa | 0 mm | - | - | - |
| 1778189069 | 13.33° C | 83% | 1015.1 hPa | 0 mm | - | - | - |
| 1778188765 | 13.33° C | 84% | 1014.6 hPa | 0 mm | - | - | - |
| 1778188468 | 13.33° C | 84% | 1014.4 hPa | 0 mm | - | - | - |
| 1778188163 | 13.33° C | 85% | 1014.9 hPa | 0 mm | - | - | - |
| 1778187866 | 13.33° C | 86% | 1014.7 hPa | 0 mm | - | - | - |
| 1778187569 | 13.33° C | 87% | 1015.3 hPa | 0 mm | - | - | - |
| 1778187265 | 13.89° C | 86% | 1015.7 hPa | 0 mm | - | - | - |
| 1778186968 | 13.89° C | 86% | 1015.2 hPa | 0 mm | - | - | - |
| 1778186664 | 13.89° C | 87% | 1015.2 hPa | 0 mm | - | - | - |
* Rain since midnight (hover to see other rain measurements)
** Current wind speed in m/s (hover to see current wind gust speed)